Location: Caltech
(34.1382°N, 118.1253°W)
Time: 10:07:18
(UTC-07:00)

SEDSat Delta rocket - Visible Passes

Search period start: 23 October 2017 00:00
Search period end: 02 November 2017 00:00
Orbit: 533 x 1002 km, 31.4° (Epoch: 22 October)

Date Brightness Start Highest point End Pass type
(mag) Time Alt. Az. Time Alt. Az. Time Alt. Az.
27 Oct 6.8 06:16:03 10° SSE 06:16:31 10° SSE 06:16:59 10° SE visible
29 Oct 5.9 06:35:51 10° SSW 06:41:10 25° SSE 06:46:12 10° E visible
30 Oct 6.0 05:55:27 10° SSW 06:00:31 22° SSE 06:05:25 10° ESE visible
31 Oct 6.1 05:15:11 10° SSW 05:19:52 20° SSE 05:24:28 10° ESE visible
01 Nov 6.1 04:36:40 14° S 04:39:13 17° SSE 04:43:22 10° ESE visible
01 Nov 5.1 06:18:54 10° SW 06:25:14 42° SSE 06:31:20 10° E visible
